Showing default

TBA - TO BE ASSIGNED, 69646

Orbit data source: Space-Track

You're viewing an Uncataloged Satellite

Recently launched and/or uncataloged satellites may have evolving metadata. Metadata may include but not limited to: Owner, Maufacturer, Bus, Motor, and Mission.

TBA - TO BE ASSIGNED named objects are likely recently launched satellites that are being tracked but not necessarily identified.

Loading next visibility...
Identifier
69646
Orbit
SSO
Country
Unknown
Related business
None
Manufacturer
Unknown
Mission
Spacecraft
Bus & Motor
Unknown
Mass
Unknown
Launch date (UTC)
Unknown
Launch vehicle
Unknown
Launch site
Unknown
Object type
Unknown
Shape & HBR
Unknown
Radar Cross Section
RCS unknown

Expand to show TLE details & history
Last TLE update: 13 hours ago

TLE from 13 hours ago
0 TBA - TO BE ASSIGNED
1 69646U 26142A   26171.29528050  .00019950  00000-0  26102-3 0  9992
2 69646  97.4467  68.8240 0083850 248.7177 110.5108 15.54449809   137
Epoch: 2026-06-20T07:05Z
TLE epoch observation values (Epoch: 2026-06-20T07:05:12.235Z)
Latitude
-0.00005°
Longitude
54.01107°
Altitude
427.234 km
Speed
7.644 km/s
True Right ascension
04h 35m 17s
True Declination
0° 00' 00"
Sunlit
Object was in daylight at epoch
Visualization orbit readout
Latitude
Unknown
Longitude
Unknown
Altitude
Unknown
Speed
Unknown
Apparent Right ascension
Unknown
Apparent Declination
Unknown
Sunlit
N/A
Visualization observer readout
Local Sidereal Time
07:11:57
Azimuth
Unknown
Elevation
Unknown
Doppler factor
Unknown
Orbital elements
Apogee altitude
457.514 km
Perigee altitude
343.834 km
Semi-major axis
6,778.811 km
Eccentricity
0.00839
Inclination
97.4467°
RAAN
68.824°
Arg. of periapsis
248.7177°
True anomaly
111.40741°
Mean anomaly
110.5108°
Eccentric anomaly
110.95944°
Mean motion
3.88878 °/min
Orbital period
92.57 mins
BSTAR
0.00026102
Loading maneuver chart data...
Computing Atmospheric mass density...
Loading historical data...
Loading historical data...
Loading historical data...
Loading historical data...
Loading historical data...
Loading historical data...
Loading historical data...
Other satellites on launch

Documentation

Showing up to 5 results
|